Flag for U.S.A. Weather past 2 weeks in Shiprock, New Mexico, U.S.A.

Now
46 °F

Sunny.


Feels Like: 46 °F
Forecast: 31 / 55 °F
Wind: No wind

Location: Four Corners Regional Airport

Current Time: Jan 28, 2015 at 11:42:53 AM

Latest Report: Jan 28, 2015 at 10:53 AM


Visibility: 10 mi

Pressure: 30.28 "Hg

Humidity: 58%

Dew point: 32 °F

Location of ShiprockLocation

Historic Weather in Shiprock — Graph

°F

Shiprock temperature yesterday

Maximum temperature yesterday: 59 °F (at 2:53 PM)
Minimum temperature yesterday: 31 °F (at 5:53 AM)
Average temperature yesterday: 42 °F

Past Weeks' High & Low Weather Summary

 TemperatureHumidityPressure
High59 °F (Jan 27, 2:53 PM)100% (Jan 16, 8:53 PM)30.52 "Hg (Jan 16, 8:53 PM)
Low15 °F (Jan 23, 6:53 AM)28% (Jan 26, 1:53 PM)29.96 "Hg (Jan 21, 4:53 PM)
Average33 °F72%30.31 "Hg
* Reported Jan 13 10:53 AM — Jan 28 10:53 AM, Shiprock, Weather by CustomWeather, © 2014

Note: Actual official high and low records may vary slightly from our data, if they occured in-between our weather recording intervals... More about our weather records

Advertising

Shiprock weather history for previous 24 hours

 ConditionsComfort  
Time TempWeatherWind HumidityBarometerVisibility
10:53 AM
Jan 28
46 °FSunny.No wind58%30.28 "Hg10 mi
9:53 AM41 °FSunny.5 mph65%30.30 "Hg10 mi
8:53 AM36 °FSunny.6 mph75%30.32 "Hg10 mi
7:53 AM30 °FSunny.No wind85%30.33 "Hg10 mi
6:53 AM29 °FClear.7 mph89%30.30 "Hg10 mi
5:53 AM31 °FClear.3 mph85%30.25 "Hg10 mi
4:53 AM31 °FClear.6 mph85%30.23 "Hg10 mi
3:53 AM33 °FClear.6 mph82%30.23 "Hg10 mi
2:53 AM35 °FPassing clouds.8 mph78%30.22 "Hg10 mi
1:53 AM37 °FPassing clouds.7 mph73%30.22 "Hg10 mi
12:53 AM39 °FMostly cloudy.No wind70%30.24 "Hg10 mi
11:53 PM
Jan 27
39 °FOvercast.No wind70%30.24 "Hg10 mi
10:53 PM39 °FMostly cloudy.3 mph73%30.25 "Hg10 mi
9:53 PM40 °FOvercast.3 mph70%30.27 "Hg10 mi
8:53 PM40 °FOvercast.7 mph68%30.27 "Hg10 mi
7:53 PM39 °FPassing clouds.8 mph70%30.29 "Hg10 mi
6:53 PM42 °FClear.No wind62%30.27 "Hg10 mi
5:53 PM52 °FClear.No wind49%30.23 "Hg10 mi
4:53 PM58 °FSunny.No wind39%30.22 "Hg10 mi
3:53 PM57 °FSunny.3 mph42%30.22 "Hg10 mi
2:53 PM59 °FSunny.3 mph36%30.22 "Hg10 mi
1:53 PM55 °FOvercast.No wind35%30.26 "Hg10 mi
12:53 PM51 °FOvercast.3 mph39%30.30 "Hg10 mi
11:53 AM47 °FOvercast.No wind48%30.34 "Hg10 mi
Weather by CustomWeather, © 2014

See weather overviewHow to use our weather pages